Wind_Speed
5 5 4 5 5 6 5 5 5 6 7 8 8 7 7 6 4 3 2 2 3 4 5 5 5 5 7 9 9 10 10 10 13 15 17 21 24 22 22 22 23 24 26 28 29 29 30 30 31 31 31 31 30 29 27 24 21 18 15 12 10 12 14 15 16 17 18 18 18 19 19 18 18 18 19 19 19 19 17 15 13 14 15 18 19
4 5 5 5 5 5 4 5 7 8 9 9 9 8 7 5 5 4 2 4 5 5 6 6 5 6 8 8 9 10 10 10 12 16 20 25 28 28 28 29 30 31 32 33 33 33 33 33 33 32 32 31 30 29 26 23 21 18 15 13 12 13 16 17 19 20 21 21 21 21 21 20 20 20 20 20 20 18 16 14 14 15 16 18 19
6 6 5 5 5 5 6 7 8 8 8 8 7 6 5 5 5 5 5 6 6 6 6 7 7 7 7 7 8 11 13 14 17 21 25 29 31 32 32 32 33 34 34 34 34 33 33 32 32 31 31 29 28 26 24 22 19 18 16 16 16 18 20 22 23 24 23 23 22 22 22 21 21 20 20 19 18 16 13 13 15 16 18 20 22
6 5 5 6 7 7 8 8 8 7 7 6 6 5 4 4 3 3 5 7 7 6 6 7 7 7 7 8 10 14 17 20 24 26 29 31 33 33 34 34 35 35 35 35 34 34 33 33 32 31 30 29 28 26 25 23 22 21 21 21 22 23 24 25 25 25 25 24 23 23 22 21 20 19 19 18 16 13 12 14 17 18 20 22 20
6 5 7 8 9 9 8 8 6 5 6 6 6 5 5 5 4 4 4 6 6 6 7 8 8 8 9 12 14 16 19 24 28 29 30 32 34 35 35 35 36 36 36 36 36 36 35 34 33 33 32 31 30 30 29 27 26 25 25 25 26 26 26 26 27 26 26 25 24 23 21 20 20 20 19 18 15 12 12 15 18 20 20 19 18
7 8 9 10 10 9 7 7 6 4 6 7 5 4 5 5 6 6 7 6 6 7 9 9 10 12 15 18 19 21 25 28 31 33 33 34 35 36 36 37 37 38 38 38 38 38 37 37 36 35 35 34 34 34 33 32 30 30 29 28 28 28 28 28 28 28 27 26 25 23 22 21 21 22 22 20 16 13 13 15 19 21 20 19 21
9 9 10 10 9 8 6 7 6 5 6 6 5 5 6 6 6 8 10 9 10 11 11 12 17 19 19 21 22 25 30 32 33 35 35 36 37 37 38 39 40 41 41 41 41 41 40 40 40 39 39 38 38 38 37 36 34 33 32 31 30 30 31 31 31 31 30 29 27 26 25 25 25 26 25 22 18 14 13 15 18 19 19 20 23
9 10 10 10 9 9 7 7 7 7 7 6 7 8 8 7 8 11 13 12 15 17 17 19 22 23 22 24 26 29 32 33 34 35 36 37 39 40 42 43 43 43 44 44 44 44 44 44 43 43 43 42 43 42 41 40 38 36 35 34 34 33 34 34 34 34 34 33 31 30 28 28 29 29 28 26 22 17 14 15 16 17 19 22 23
10 11 11 10 10 9 8 7 8 8 9 9 10 11 11 10 11 14 16 18 20 22 24 26 27 26 27 29 30 32 34 35 35 35 35 37 38 41 43 43 44 45 45 46 46 46 46 46 45 45 45 44 45 45 44 43 42 41 40 39 38 38 38 38 37 37 37 36 35 33 32 31 32 32 31 29 26 23 20 19 18 18 20 22 24
12 12 12 12 11 11 10 9 10 11 12 12 12 14 14 14 16 17 19 22 23 24 25 26 26 26 28 29 30 32 33 34 34 33 34 36 37 39 40 40 42 44 45 45 45 45 45 45 44 44 44 44 45 45 45 44 44 43 43 43 42 42 42 41 41 40 40 39 38 37 36 35 34 34 33 32 29 27 25 23 21 20 21 23 24
14 14 14 15 15 15 15 14 15 16 17 17 17 17 18 18 19 21 22 23 24 25 23 22 24 25 27 30 32 33 33 34 35 35 35 36 35 36 37 39 40 42 43 43 42 42 43 43 42 42 42 42 43 44 43 43 43 44 44 44 43 43 43 43 43 44 43 43 42 41 40 38 38 37 36 34 33 31 28 27 25 23 24 24 25
17 18 19 20 22 21 22 23 22 22 24 24 23 22 22 22 22 24 26 26 27 27 24 24 26 27 29 33 35 36 37 39 40 39 38 37 36 37 39 40 40 40 40 40 40 41 41 41 41 40 40 41 42 42 42 42 42 42 42 42 43 43 43 43 44 45 45 45 44 44 44 43 41 40 38 37 35 34 33 31 29 27 27 27 27
20 21 22 24 27 28 28 30 29 27 27 27 26 26 26 25 25 28 31 31 30 29 29 30 31 31 32 34 35 35 37 38 38 38 39 39 39 39 39 40 39 38 39 38 38 39 40 40 40 40 40 40 41 41 41 41 40 40 40 40 41 41 42 43 44 45 45 45 45 45 46 45 45 43 41 39 38 38 37 36 33 32 31 30 30
23 24 25 26 29 33 33 33 33 32 30 29 30 30 29 29 30 32 35 35 35 35 35 36 35 35 37 37 36 34 34 34 34 35 36 37 37 37 38 39 39 39 40 39 37 38 39 39 39 39 39 39 39 40 40 39 39 39 39 39 39 40 41 42 43 44 44 44 45 45 45 46 46 45 44 43 42 41 41 40 38 37 36 34 33
26 28 30 30 30 33 34 35 35 35 35 35 34 34 33 34 34 34 35 37 38 37 36 37 39 40 41 39 36 33 32 32 33 34 35 35 35 36 38 38 38 38 38 37 36 36 38 38 37 37 37 38 38 39 38 37 36 36 36 37 37 38 39 40 42 42 43 43 44 44 44 45 45 45 45 45 44 44 44 43 42 42 40 38 37
26 28 31 32 31 31 33 36 36 35 35 36 36 36 36 37 36 35 36 37 37 37 38 40 41 40 38 36 34 32 31 32 34 35 34 34 33 34 35 35 35 35 35 36 35 36 38 37 36 36 36 37 38 38 37 35 34 34 34 34 34 35 37 38 39 40 41 41 42 42 43 43 43 44 44 44 45 46 46 46 45 45 44 43 41
29 30 30 31 31 30 31 35 36 35 35 35 36 36 37 38 38 38 37 37 38 39 40 39 38 37 37 36 36 34 34 35 36 35 34 34 33 32 32 32 34 36 36 36 35 35 37 37 37 36 35 36 37 36 35 33 32 33 33 32 32 33 33 35 36 37 38 39 40 40 41 42 42 42 42 43 44 45 46 47 47 47 46 45 44
32 33 33 32 32 31 31 32 33 33 33 33 33 34 37 38 38 39 39 40 40 40 39 39 39 39 40 40 41 39 39 38 37 35 34 34 34 33 32 31 33 35 35 34 33 31 32 35 35 34 34 35 36 34 32 31 31 31 31 30 30 30 31 31 33 34 35 36 37 38 39 40 41 41 41 42 43 44 45 46 46 47 47 47 46
32 33 33 33 34 34 33 31 31 31 31 32 32 34 37 39 40 41 41 39 37 36 37 38 39 39 41 42 43 42 41 40 39 38 37 36 36 34 33 31 30 30 32 33 32 30 31 31 31 32 33 33 33 32 30 30 30 30 30 29 29 29 29 30 30 31 32 34 35 36 37 38 39 40 41 42 42 43 44 44 45 46 47 47 47
32 33 33 32 33 33 32 33 34 34 33 33 33 34 35 38 40 40 40 39 38 38 38 37 38 39 39 40 40 40 41 41 41 40 38 38 37 34 34 32 29 28 28 31 32 32 32 30 29 31 33 32 31 30 29 29 30 30 29 29 28 29 29 29 30 30 31 32 33 34 36 36 37 39 40 41 42 43 43 44 44 45 46 47 47
33 34 34 33 32 32 33 34 35 35 35 35 35 35 36 37 37 35 36 39 40 41 42 40 40 41 40 39 40 40 40 38 38 38 37 37 38 36 36 35 31 29 29 30 32 33 33 31 30 31 31 30 29 29 29 29 30 30 29 29 28 29 29 30 30 30 30 31 32 33 34 35 36 37 39 40 41 42 43 44 44 45 46 47 47
31 32 32 32 32 33 34 33 33 33 34 35 36 36 38 38 38 38 39 39 39 40 41 41 42 41 40 40 39 38 37 35 35 36 36 36 36 36 36 34 31 31 32 31 29 30 30 30 31 30 29 29 28 28 28 29 30 29 29 29 29 29 30 30 30 30 30 31 32 33 33 34 35 36 38 38 39 40 41 43 44 45 46 47 47
29 29 30 31 31 32 32 31 32 33 33 34 36 37 38 38 39 40 39 39 39 39 39 39 39 39 38 38 37 36 36 35 35 35 34 34 35 35 35 33 31 31 32 30 26 26 28 29 29 28 27 27 26 26 28 29 29 29 28 29 29 30 30 30 30 30 31 32 32 33 33 34 34 35 36 37 38 39 40 41 43 44 46 47 48
27 27 28 29 30 30 30 31 33 33 34 35 36 37 37 37 36 36 36 36 36 36 35 35 34 34 35 35 35 34 34 33 33 33 32 32 33 33 33 32 31 30 30 29 28 27 28 29 29 27 26 26 25 26 28 28 28 28 29 29 30 30 30 31 31 32 32 32 33 33 33 34 34 34 34 35 36 37 38 39 40 42 44 46 47
25 26 27 27 28 29 30 31 32 32 33 34 34 34 34 33 33 34 33 33 33 33 32 32 31 31 32 32 31 32 31 31 31 30 30 30 30 30 30 30 31 30 29 29 29 29 29 29 29 27 26 26 26 26 27 27 28 28 29 30 31 31 31 32 33 33 34 34 34 34 34 35 35 35 35 35 36 37 37 38 39 40 41 43 45
24 25 27 27 27 28 26 26 27 29 30 31 31 31 31 31 31 31 30 30 30 30 29 29 29 29 29 29 29 29 29 28 28 28 28 28 28 28 29 29 29 29 29 29 29 29 28 28 27 26 25 25 24 25 25 26 27 27 29 30 31 32 32 33 33 34 34 35 35 35 36 36 37 37 37 37 38 38 39 39 38 38 39 41 42
25 25 26 27 26 25 24 24 26 28 28 28 28 29 29 29 28 28 27 27 27 26 26 26 26 26 26 26 26 26 25 25 25 25 25 25 26 26 27 27 27 28 28 28 27 27 27 27 26 24 22 21 22 23 23 24 26 27 28 30 31 32 32 33 33 34 35 35 35 36 36 38 39 39 40 41 41 42 41 41 39 38 38 39 40
24 24 24 25 25 25 25 26 27 27 26 27 27 26 26 26 25 24 24 23 23 23 23 23 23 22 23 22 22 22 22 21 22 22 22 22 23 24 24 24 25 25 26 26 26 25 25 25 24 22 21 20 21 22 22 24 25 27 28 29 30 31 31 32 33 34 35 36 36 37 37 38 40 41 42 42 43 44 43 42 40 38 38 38 38
23 23 23 23 23 23 24 25 25 25 25 24 23 23 22 22 21 20 20 19 19 19 19 18 19 19 19 19 18 18 18 18 18 18 19 19 20 20 21 21 21 22 22 22 22 22 21 21 21 21 20 20 21 22 23 23 24 25 26 26 27 28 29 30 32 33 34 36 37 37 38 39 40 41 41 42 43 43 44 43 42 39 37 37 37
22 22 21 21 21 21 22 23 23 23 22 21 20 19 19 18 17 16 16 16 15 15 14 14 14 14 14 14 14 14 14 14 15 15 16 16 16 17 17 17 18 18 18 18 18 18 17 17 17 17 18 19 20 21 21 22 22 22 22 23 24 25 27 28 30 31 32 34 35 36 36 37 37 38 39 40 41 42 42 43 44 42 40 39 38
21 20 20 19 20 20 21 21 21 20 19 19 18 17 16 15 14 13 13 12 11 11 10 9 9 9 9 10 10 10 11 11 12 12 13 13 13 13 14 14 14 14 15 15 14 15 15 14 14 14 16 17 16 16 18 18 18 19 19 20 21 22 24 25 27 29 30 31 33 33 34 34 34 34 36 37 38 39 39 40 41 42 42 42 42
19 19 18 18 18 19 19 19 19 18 18 17 16 15 14 13 12 11 10 9 8 7 6 6 5 5 5 5 6 6 7 8 9 9 10 10 10 11 10 10 10 10 11 12 13 14 14 15 15 13 13 13 12 13 14 14 14 16 17 18 19 20 21 22 24 26 27 28 29 30 31 31 31 32 32 33 34 35 36 37 38 39 40 41 41
17 16 16 16 16 16 16 16 16 15 15 15 14 13 13 12 11 9 8 7 6 5 4 3 3 3 3 3 3 3 4 5 5 6 7 7 8 8 8 7 7 7 8 10 11 11 11 11 12 11 10 9 10 10 10 10 11 13 14 15 17 18 19 20 21 23 24 25 26 27 28 28 29 29 29 30 31 32 33 34 35 36 37 37 37
13 13 13 13 13 13 13 13 13 13 12 12 12 12 11 10 9 8 7 6 5 5 4 3 3 3 3 2 2 1 1 2 3 3 4 5 6 6 6 6 6 6 5 6 7 8 8 9 9 9 8 7 7 7 6 8 9 10 11 13 14 16 16 17 18 19 21 21 22 23 24 25 26 26 27 28 29 30 30 31 31 32 33 33 34
11 11 11 11 11 11 10 10 10 10 10 10 10 10 9 9 8 8 7 5 5 4 4 3 3 3 2 2 3 3 2 2 4 4 5 5 5 6 6 8 8 7 5 2 2 3 4 6 6 6 7 6 6 6 5 4 5 6 8 9 11 12 13 13 14 15 17 18 19 20 21 22 23 23 24 24 25 26 26 27 27 28 29 30 30
11 11 10 10 10 9 9 9 9 9 9 9 9 9 8 8 8 7 6 6 6 6 5 5 5 4 4 5 6 6 5 5 6 7 7 8 7 7 7 9 10 8 5 4 4 6 6 3 2 3 6 6 6 7 5 3 2 3 5 6 7 8 9 10 11 11 12 13 14 15 17 18 19 20 20 21 22 23 24 24 24 25 25 26 26
12 11 11 10 10 9 9 9 9 9 9 9 9 9 9 9 8 8 8 8 8 8 8 7 7 7 7 8 8 8 8 9 9 9 10 10 10 11 11 11 11 8 5 5 6 6 4 3 3 6 7 6 6 6 4 3 3 3 3 3 4 4 4 6 7 7 7 8 10 11 13 14 15 17 18 19 19 19 20 21 22 22 23 23 23
8 8 8 8 8 8 8 8 8 8 9 9 9 10 10 10 10 10 10 11 11 11 10 10 10 10 11 11 11 11 11 12 12 12 12 12 11 11 11 10 10 8 6 6 7 7 5 4 5 7 7 6 6 5 3 2 3 2 2 4 5 5 5 5 4 4 5 5 6 8 9 10 11 13 14 16 17 17 17 18 19 20 21 21 21
5 4 4 4 5 5 5 5 6 7 7 8 9 10 10 11 11 12 12 12 13 13 13 12 12 13 13 13 12 12 12 12 12 11 11 10 9 8 8 8 8 9 9 8 8 9 8 6 6 6 5 4 2 1 1 2 4 4 5 6 7 8 8 8 7 7 8 7 7 8 9 9 10 11 13 14 16 17 17 17 17 18 19 20 20
5 5 4 4 4 4 4 5 6 7 7 7 7 8 9 9 10 10 10 11 11 12 13 13 12 12 12 12 11 10 10 10 9 10 10 9 8 8 8 9 9 10 11 11 11 9 6 5 4 4 6 6 4 3 2 3 5 8 8 7 8 10 11 10 9 9 10 11 10 11 11 12 12 13 14 15 17 18 18 18 17 17 17 18 19
8 7 7 6 6 6 7 8 9 9 9 8 9 10 10 10 10 10 10 11 11 11 12 12 11 10 10 10 10 10 10 10 10 11 11 11 11 11 12 13 14 15 14 14 14 11 6 6 6 5 5 6 5 5 6 6 7 8 9 9 9 12 13 14 13 12 12 13 13 14 14 14 15 16 17 18 18 19 20 20 19 19 19 19 19
12 11 10 10 9 10 11 12 12 12 11 12 13 13 14 13 13 13 13 14 13 13 13 13 12 11 11 12 12 13 13 14 15 15 15 14 15 15 16 16 17 18 18 17 16 13 10 10 10 9 8 7 7 7 8 8 8 8 9 10 12 13 14 15 16 15 15 14 15 17 17 17 17 17 18 19 20 20 20 20 20 20 20 20 21
16 15 14 13 13 14 15 16 16 15 14 14 15 16 17 17 17 18 18 19 18 17 17 17 17 17 17 16 16 17 17 19 19 19 17 17 18 17 17 18 19 19 20 19 19 17 15 15 14 12 11 10 10 11 11 10 10 10 11 12 14 15 14 15 17 18 19 17 16 17 18 19 19 18 18 19 20 20 20 20 19 18 19 21 21
20 19 18 17 17 18 18 19 20 20 18 17 18 18 19 19 19 20 21 22 22 22 22 22 22 22 22 21 21 21 21 23 23 22 20 20 21 21 20 20 21 21 21 21 21 21 20 19 18 17 15 14 13 13 13 13 13 13 13 14 16 17 17 18 19 20 21 19 18 18 19 20 20 20 19 19 21 21 20 20 19 19 21 23 23
25 24 22 22 22 22 22 23 24 24 21 21 22 22 22 22 21 22 23 24 24 25 25 26 26 26 25 25 25 25 25 26 26 25 24 24 24 24 24 24 23 23 23 23 23 23 23 23 22 21 19 16 15 15 17 19 19 17 16 17 19 20 22 22 22 21 20 20 19 19 19 20 21 22 21 20 21 21 19 20 22 25 26 26 26
29 28 27 26 27 26 25 25 26 26 25 24 24 25 26 26 25 25 25 26 26 26 28 29 29 29 28 28 28 28 28 28 28 27 27 28 28 28 27 27 27 25 24 25 26 26 25 25 25 25 24 21 20 20 21 22 22 22 22 21 22 23 25 25 25 24 23 21 19 18 18 19 20 21 21 19 20 21 21 23 27 29 30 31 30
32 32 31 31 32 31 29 29 29 29 28 27 27 27 28 28 28 28 28 29 29 29 30 31 31 31 32 32 31 31 31 30 30 30 30 30 31 31 31 30 30 29 28 28 28 28 27 27 28 28 28 27 25 24 24 23 23 23 24 25 26 27 28 28 28 28 26 24 22 20 20 20 21 23 23 21 20 22 25 28 31 33 34 35 36
35 35 35 35 35 34 33 34 34 32 30 29 30 31 32 31 31 30 31 32 32 31 31 32 33 33 34 35 34 34 34 34 34 34 34 33 33 34 34 33 33 33 32 32 31 29 28 28 29 29 29 28 26 24 23 24 25 25 25 26 28 29 30 30 30 30 29 28 27 26 24 24 24 26 28 28 27 27 30 33 35 37 38 40 40
38 39 39 39 38 37 37 37 36 36 35 34 32 33 34 35 35 34 34 35 34 34 34 33 34 35 36 37 37 36 35 36 36 37 38 37 37 37 37 37 37 36 36 36 35 33 32 31 30 29 27 27 26 26 25 25 26 27 28 29 29 30 32 32 32 32 32 32 32 32 31 30 29 28 30 33 35 35 36 38 41 43 43 43 43
42 43 44 43 42 41 40 38 38 39 39 37 36 36 37 37 38 38 37 37 38 38 38 38 37 37 38 39 39 38 38 38 38 39 40 40 40 40 41 41 41 40 40 40 40 39 37 35 34 32 31 30 30 31 31 31 32 32 32 34 35 34 35 36 35 36 38 38 38 37 37 37 36 34 33 36 40 42 42 41 42 44 46 46 46
44 45 45 46 45 44 42 41 43 43 43 41 40 41 41 42 42 42 41 40 41 42 43 42 41 41 41 42 42 41 41 41 41 41 42 42 42 42 43 43 44 44 44 44 44 44 43 41 39 38 38 38 38 38 38 39 40 39 39 40 40 39 40 41 41 41 43 44 44 44 44 44 44 42 40 41 43 45 48 47 43 44 46 48 49
Wind_Direction
358 24 53 71 71 66 59 45 30 30 31 29 28 28 23 20 21 20 33 20 355 5 19 27 34 15 1 4 4 1 9 16 15 18 26 30 33 39 44 49 53 58 62 63 66 66 67 67 68 68 68 69 70 70 70 69 69 68 66 61 41 18 15 21 21 22 22 20 19 18 18 18 16 14 9 3 1 0 2 10 24 36 45 47 44
54 70 79 80 68 59 53 35 27 26 28 31 27 20 19 9 359 3 340 322 333 345 357 7 15 9 6 11 8 15 30 31 32 44 47 45 48 52 54 59 62 65 66 66 66 65 65 65 65 67 68 69 70 70 69 68 66 63 59 50 35 26 25 25 24 23 21 19 18 18 19 18 17 14 6 2 4 6 15 30 41 44 43 39 33
95 90 78 62 45 39 40 33 27 25 27 31 24 16 14 359 356 1 331 326 335 335 350 11 18 11 13 23 29 40 50 54 60 63 59 56 58 62 63 64 64 65 64 64 64 63 63 62 63 64 66 68 70 71 71 69 66 62 57 50 42 37 32 29 26 24 21 19 18 19 21 20 17 11 3 4 9 14 26 40 44 41 39 36 30
103 93 68 52 39 33 35 33 28 25 18 18 18 9 356 348 359 3 343 344 346 341 3 21 21 23 35 50 57 62 65 69 71 69 65 62 62 64 64 63 62 62 61 62 63 63 64 63 62 61 62 63 65 65 65 63 60 57 54 50 46 41 36 32 28 25 23 21 21 22 22 20 15 8 6 11 19 27 38 44 43 42 43 39 29
93 82 59 48 39 31 30 27 19 13 6 3 5 358 350 352 3 15 9 4 3 12 27 26 31 47 64 70 72 72 72 74 74 70 67 64 64 64 64 64 63 62 62 62 63 63 64 63 61 59 58 58 59 59 59 58 57 55 53 50 47 43 39 36 32 29 27 25 25 25 24 21 16 14 16 21 30 37 41 42 40 42 45 37 23
83 75 58 47 37 27 20 15 7 4 3 1 359 3 14 9 3 21 34 34 38 47 45 38 52 69 80 82 80 78 77 78 76 72 70 68 67 67 66 66 66 65 64 63 63 62 62 62 62 60 59 58 59 59 59 58 56 54 52 50 48 46 43 41 38 35 33 32 30 29 28 26 24 23 26 30 34 36 39 37 35 37 39 32 22
82 70 58 48 34 22 14 11 11 12 9 14 27 29 36 29 19 39 49 54 64 70 67 65 71 78 87 87 83 82 82 81 78 75 73 72 70 69 69 69 68 67 67 66 66 65 65 65 65 65 63 62 62 61 61 59 57 55 53 51 50 48 47 45 43 41 39 37 36 34 33 31 30 30 32 35 35 34 36 33 29 29 28 27 22
78 68 59 50 39 30 32 29 25 30 34 47 59 57 55 52 51 60 65 70 77 78 76 78 79 81 87 89 86 85 83 81 79 77 75 74 73 72 71 70 70 70 70 70 70 70 70 69 69 69 68 67 66 64 63 62 60 58 56 54 52 50 49 48 46 45 43 42 40 38 37 36 35 34 35 37 36 35 35 30 24 20 19 20 18
74 67 58 53 49 44 48 53 47 50 61 69 71 69 65 63 68 76 81 84 84 82 81 84 85 84 87 88 86 83 82 82 81 80 77 76 76 75 73 72 72 73 73 73 73 73 73 72 71 70 70 69 68 66 65 63 62 60 59 56 54 52 50 49 48 47 47 45 43 42 40 40 39 39 38 37 37 37 36 32 25 19 17 16 14
71 66 60 59 61 61 66 75 71 66 73 77 78 77 73 73 79 84 89 91 88 85 86 87 85 84 86 87 86 85 84 83 83 81 80 80 78 74 71 72 74 75 74 74 74 74 73 72 71 70 69 69 68 66 65 63 61 60 59 57 55 53 52 51 51 50 49 48 46 45 44 43 42 42 41 40 39 38 37 36 31 27 24 19 17
74 74 72 71 74 76 79 86 88 82 81 83 85 85 82 83 84 84 89 95 92 88 88 91 88 85 86 85 87 89 88 87 87 86 84 81 75 72 73 75 75 75 74 72 72 72 72 71 70 68 67 66 66 64 63 61 60 59 58 57 56 55 54 53 52 52 51 50 48 47 46 45 45 44 43 42 42 41 40 39 36 34 33 29 27
85 85 83 81 82 85 87 88 89 89 89 90 91 90 86 86 87 85 88 94 93 89 87 92 94 89 88 89 90 91 90 89 88 85 82 80 78 79 80 79 77 75 73 72 72 71 71 70 69 67 65 64 64 63 62 61 59 57 56 56 55 55 54 54 53 53 52 51 49 49 48 47 47 46 45 44 43 43 43 42 40 40 40 38 36
92 91 89 88 88 88 89 87 85 88 92 92 91 91 89 88 89 87 87 91 92 93 92 95 98 95 93 95 95 92 90 86 82 78 77 80 84 83 81 79 76 72 70 71 72 71 70 69 67 65 64 63 62 61 61 59 58 57 55 54 54 53 53 53 53 52 52 51 50 50 49 49 48 48 47 46 45 44 44 44 43 44 45 44 43
93 93 92 93 94 91 88 84 83 85 88 90 90 90 90 92 93 89 88 91 93 95 94 95 99 100 98 98 95 91 88 84 80 77 77 81 82 78 75 74 72 70 69 69 70 69 69 67 64 62 61 61 60 59 57 56 55 55 54 53 52 52 51 51 51 51 51 51 50 50 50 50 50 49 49 48 48 47 46 45 44 45 45 46 46
97 94 92 95 96 91 86 83 83 84 85 86 87 88 90 93 94 92 92 94 93 92 93 95 98 99 97 94 89 84 83 84 84 84 84 84 79 72 71 72 72 72 71 69 69 68 67 66 64 61 58 59 59 57 54 52 52 52 52 50 50 51 50 50 50 50 50 50 50 50 50 50 50 50 50 50 50 49 48 47 45 45 45 45 47
101 99 95 94 92 87 86 86 86 87 87 84 85 87 90 93 95 96 97 97 94 92 94 96 96 94 91 87 84 83 85 87 88 88 88 84 77 73 74 75 74 73 72 71 69 68 67 65 61 58 57 56 56 56 53 50 50 50 50 49 48 49 49 49 50 50 50 50 50 50 50 50 51 51 51 51 51 50 49 48 47 47 46 46 46
99 100 97 94 91 88 88 88 86 88 89 86 85 86 89 93 96 97 98 96 95 96 96 94 91 90 88 88 88 88 88 87 88 88 87 83 79 78 78 77 74 72 72 70 67 65 65 63 58 55 54 53 54 53 51 48 48 49 48 48 48 48 49 50 51 51 51 50 50 50 50 51 51 51 52 52 52 51 50 49 48 48 48 47 46
97 96 94 91 92 93 93 93 90 89 89 87 86 87 91 93 95 97 98 96 96 97 95 93 91 89 89 90 90 89 87 86 87 87 86 85 84 81 79 77 76 74 69 63 60 60 61 59 54 52 52 51 51 50 49 48 48 48 47 47 47 48 50 51 52 52 52 52 52 51 51 51 52 52 52 52 52 52 51 50 49 49 49 49 48
96 95 93 91 93 95 94 95 95 93 91 90 90 93 95 95 97 98 96 95 96 97 96 95 94 91 90 91 89 87 87 87 87 86 84 83 83 81 79 79 77 73 66 59 57 57 57 56 53 52 51 51 50 48 48 47 47 48 48 47 48 49 51 52 54 54 54 54 54 54 53 52 52 52 53 53 53 53 52 51 50 50 51 51 51
96 94 93 94 95 97 96 96 96 96 96 96 97 98 99 99 102 100 94 93 96 97 97 97 96 95 94 91 89 89 90 88 86 84 81 79 79 80 80 77 71 70 69 62 58 58 58 56 54 52 51 49 48 48 47 48 49 49 49 49 49 50 52 53 55 55 56 57 57 57 56 54 53 53 54 54 54 54 53 53 52 52 53 53 53
97 96 95 97 98 99 101 100 98 98 99 100 101 101 102 104 104 102 99 99 99 97 97 97 97 96 93 90 89 90 89 86 82 80 79 78 78 78 78 75 71 69 69 63 57 57 59 57 52 51 50 47 45 46 48 50 51 51 51 52 52 53 54 55 56 56 57 59 59 59 59 57 56 55 55 55 54 54 55 55 54 55 55 56 56
102 100 98 99 99 102 105 104 102 103 104 104 103 103 103 103 101 99 101 102 100 97 96 96 96 94 91 89 88 87 83 81 79 78 78 77 76 74 73 75 74 71 69 65 56 53 56 56 52 51 51 49 47 48 51 52 53 53 54 55 56 56 57 57 58 58 59 59 60 60 61 60 59 58 57 56 56 56 55 55 56 56 56 57 58
106 105 104 103 105 107 108 108 107 108 109 108 106 105 104 102 101 99 99 99 98 97 95 95 94 93 91 89 87 84 81 79 78 76 75 74 72 69 69 70 71 71 70 69 64 57 55 54 52 51 51 51 51 52 53 54 54 56 57 58 58 58 59 59 61 61 61 61 61 61 61 61 61 60 59 58 58 58 57 57 57 57 57 58 59
111 111 110 109 110 111 111 112 112 111 112 111 109 107 106 104 103 101 100 99 97 96 95 94 93 91 90 88 85 83 81 78 76 75 73 71 70 68 67 66 66 68 69 68 67 63 58 55 53 52 53 54 53 53 54 55 57 58 60 61 61 61 62 62 62 63 63 63 63 62 62 63 62 61 60 59 59 59 59 59 59 58 58 59 59
115 115 116 116 115 115 115 116 116 115 115 113 111 110 109 107 105 102 101 100 98 97 96 95 93 90 88 86 84 82 79 77 75 74 72 70 69 68 67 65 64 64 65 65 64 62 59 56 54 53 54 55 54 54 56 58 60 61 63 64 65 65 65 65 65 65 64 64 64 63 63 63 62 61 60 58 58 58 59 60 61 61 61 60 60
118 118 118 119 120 121 121 121 120 120 120 117 115 114 111 109 107 104 101 100 99 98 96 94 92 89 87 85 82 80 77 76 75 73 71 70 69 69 67 66 64 63 64 65 63 61 59 56 54 54 53 54 56 57 59 62 64 65 66 67 68 68 67 67 67 66 66 66 65 64 63 62 61 61 60 59 57 57 57 57 59 62 64 64 63
121 122 121 121 123 125 125 125 125 124 123 120 118 116 113 110 108 104 102 101 100 99 96 94 93 91 89 86 83 80 78 77 76 73 71 70 70 70 68 66 64 63 64 65 64 62 59 58 56 55 55 58 60 60 61 65 67 68 70 70 69 68 67 67 66 66 67 66 66 66 64 63 62 62 61 61 60 58 57 56 55 57 61 65 66
125 126 125 124 125 126 127 128 128 127 125 123 120 117 114 111 109 105 103 101 99 98 96 95 94 93 91 88 84 82 80 79 77 74 72 73 72 71 69 67 65 64 64 64 64 63 62 59 58 60 62 62 63 65 66 69 72 73 72 70 69 68 67 66 66 66 65 65 66 66 65 64 63 62 61 60 59 58 56 55 54 54 55 59 63
130 130 130 130 130 131 134 134 133 132 130 128 125 122 118 114 111 108 105 102 100 99 97 96 96 95 94 92 89 85 83 80 78 75 74 73 73 71 70 68 66 66 66 64 63 64 63 60 60 66 66 62 64 70 71 72 74 74 71 69 67 66 66 65 66 66 65 65 65 65 65 64 63 61 59 57 56 56 56 55 54 54 54 54 56
135 136 135 134 135 137 140 141 141 139 137 135 133 130 127 123 118 115 111 108 105 101 98 96 96 97 96 96 94 89 85 83 79 77 75 73 72 71 67 64 64 65 66 66 65 65 64 63 63 66 67 66 69 72 71 72 73 71 68 65 63 62 63 64 65 66 66 66 66 66 65 64 63 60 58 57 56 56 55 55 54 54 54 54 53
138 139 138 138 139 140 144 146 147 146 145 143 142 141 138 135 130 126 119 114 110 104 98 93 91 93 95 95 94 90 85 82 80 77 74 70 67 65 62 61 62 64 65 68 67 63 62 62 60 61 66 68 69 70 71 72 71 67 63 61 60 60 61 63 65 66 67 67 67 67 66 65 63 60 59 58 57 56 55 54 54 54 54 54 54
141 142 141 141 142 144 147 150 152 153 153 152 152 152 150 147 143 139 133 126 121 115 106 95 90 93 97 97 91 87 81 76 74 71 69 65 61 58 59 59 60 63 67 69 65 59 57 56 54 56 64 66 65 70 72 71 69 66 61 60 61 61 62 63 64 65 67 68 68 67 67 65 63 61 59 57 56 56 55 54 54 54 55 54 54
144 146 147 147 149 151 153 156 157 158 160 160 160 162 162 161 159 155 152 151 149 150 146 136 132 130 130 126 110 94 81 67 63 62 58 54 51 50 51 49 47 53 66 71 70 69 67 61 57 61 73 78 73 74 75 74 73 67 62 60 62 63 65 66 67 68 68 67 67 67 66 65 63 62 60 58 57 56 55 53 51 51 51 52 52
148 150 152 154 157 160 162 163 166 167 169 169 170 172 175 175 177 178 179 182 182 184 179 174 170 168 170 171 165 153 102 44 20 25 28 27 31 28 20 11 6 12 36 68 81 80 75 72 68 68 78 87 78 73 81 81 76 71 65 62 62 64 66 68 70 71 71 70 68 66 64 62 61 59 58 57 55 54 53 51 49 46 45 45 46
155 158 160 161 162 165 169 169 173 177 178 180 183 183 184 187 190 195 200 202 209 210 201 199 196 191 212 235 242 248 262 300 310 322 332 337 350 353 345 334 327 331 340 2 39 15 24 60 82 78 69 69 69 69 76 78 70 63 61 61 62 63 63 67 71 73 73 71 68 65 61 58 55 51 49 47 46 45 45 44 44 43 41 40 39
151 156 162 168 170 173 178 181 184 189 191 193 193 194 194 196 198 203 210 220 229 226 222 226 225 222 236 252 259 260 266 278 286 297 306 310 320 321 311 304 304 308 306 302 314 313 313 339 44 44 39 47 57 52 47 39 13 14 30 41 49 55 56 59 64 69 70 68 63 58 54 50 45 40 36 33 32 31 31 31 32 33 35 35 35
147 149 154 162 168 175 183 192 200 204 207 208 205 206 209 210 214 219 225 231 237 236 234 238 238 239 246 253 259 262 269 278 280 285 292 297 304 300 295 294 294 294 290 289 307 313 298 286 306 334 348 347 343 347 359 18 1 320 314 340 350 1 19 35 45 51 54 53 48 42 39 37 32 28 24 21 19 18 18 18 19 21 24 26 27
155 153 155 158 163 169 176 187 199 206 214 219 218 219 222 226 231 236 238 241 244 245 245 247 249 255 259 259 261 267 273 277 279 284 290 293 295 293 289 290 286 282 283 285 295 307 313 305 300 305 312 317 318 309 294 327 357 341 295 287 289 298 306 317 334 351 356 6 13 13 14 16 14 12 10 8 7 5 5 7 8 9 11 14 16
187 177 174 177 178 181 181 182 195 204 210 215 219 222 226 231 236 239 243 247 252 253 252 252 255 261 266 267 269 273 277 279 281 287 291 288 286 284 281 282 284 286 292 294 295 305 316 316 296 274 262 262 270 231 222 314 317 314 311 297 283 283 284 281 288 299 304 309 321 331 334 341 345 345 347 350 350 350 349 351 354 355 358 1 3
230 235 233 233 234 233 229 224 224 225 221 219 221 224 227 230 234 239 244 248 253 255 256 257 256 260 265 269 274 276 276 279 282 284 280 276 276 279 279 283 289 296 300 302 304 307 303 294 279 247 219 216 226 221 211 256 277 281 281 275 275 284 288 284 283 287 295 297 300 304 308 314 321 323 325 329 333 334 334 335 337 340 342 345 349
237 241 246 250 254 257 256 251 247 246 247 246 245 245 243 241 240 241 244 247 250 252 255 256 254 253 257 260 265 269 270 274 277 277 275 275 278 280 281 285 291 295 297 300 302 301 288 279 284 266 228 223 238 247 243 245 258 269 271 267 272 284 292 296 294 292 293 294 295 296 296 301 308 312 313 317 321 322 322 323 324 325 327 329 332
239 238 241 245 249 254 257 257 256 255 254 254 255 256 256 256 256 255 253 254 254 251 252 253 253 252 252 255 260 265 267 268 270 272 274 276 277 278 280 283 286 288 290 292 293 290 283 281 283 278 266 256 253 254 255 259 264 270 276 278 280 282 283 287 293 296 295 292 293 293 293 295 300 304 304 308 311 313 314 315 316 317 320 323 325
242 239 236 236 240 246 251 253 254 253 251 251 253 255 257 258 260 262 263 263 262 259 257 258 260 260 261 262 265 267 268 270 270 273 275 277 277 278 281 282 282 282 283 284 285 283 281 279 277 273 269 266 267 270 272 277 283 286 288 288 288 289 286 284 287 293 295 294 293 292 292 293 294 296 297 298 301 303 306 309 312 317 324 328 328
246 244 240 236 236 239 244 248 250 247 245 248 252 253 255 256 258 260 263 265 266 267 266 265 265 265 266 268 270 271 273 274 275 276 279 280 281 282 281 280 279 280 280 279 278 277 276 276 273 269 266 265 268 274 279 284 285 283 285 289 292 295 294 291 288 288 290 292 292 290 289 289 290 292 293 292 293 296 300 305 311 316 322 326 326
249 247 244 241 239 239 240 245 249 248 247 251 256 259 260 259 257 258 261 264 267 269 269 269 269 269 269 269 270 271 272 274 276 278 280 281 281 281 280 279 278 278 279 278 275 272 272 272 270 268 267 267 270 275 281 286 286 282 280 282 285 287 288 288 287 287 289 291 291 289 288 288 288 290 292 291 289 292 295 300 306 311 314 316 317
252 251 249 248 247 245 246 249 253 254 256 258 260 262 263 263 261 261 262 264 268 269 269 270 271 272 273 272 272 272 272 273 275 276 277 278 278 278 277 278 278 276 275 276 275 273 272 272 273 271 268 270 274 277 280 284 286 285 284 283 283 283 284 286 288 290 291 291 294 294 292 292 292 291 294 292 286 287 292 297 302 307 310 311 312
253 255 255 255 254 252 251 253 256 257 259 261 262 263 264 264 264 263 262 263 267 269 270 272 272 272 273 273 274 274 275 275 275 275 274 274 275 276 276 277 278 277 274 273 272 271 271 272 274 275 273 273 273 274 277 281 283 284 286 287 288 287 286 286 288 289 290 291 294 294 292 294 295 294 295 293 286 286 293 298 302 304 306 307 308
253 255 258 260 261 259 257 257 257 256 256 258 261 264 265 265 264 263 262 262 264 266 268 270 271 271 271 272 274 275 276 277 277 276 275 273 273 275 276 276 277 277 276 274 271 269 268 269 271 273 275 275 275 274 273 275 280 287 290 290 289 288 286 285 285 285 286 288 290 289 288 289 292 293 294 293 290 290 293 296 299 301 302 303 304
255 257 258 260 263 264 263 259 255 253 254 256 259 263 266 266 266 266 266 266 266 266 265 265 266 267 268 270 272 273 275 276 277 276 276 275 274 274 275 275 274 274 274 274 272 270 268 268 268 270 270 271 272 272 271 272 278 286 288 285 285 285 283 281 281 281 281 284 286 285 284 285 287 290 291 290 290 290 292 293 296 297 297 297 298
255 258 260 261 263 264 263 258 252 252 255 259 260 261 263 265 267 268 269 270 270 269 267 264 263 263 264 266 269 271 272 273 274 275 275 275 274 274 274 274 274 273 272 272 272 271 270 268 267 267 267 266 268 269 271 273 277 278 277 277 280 282 281 280 281 282 283 286 287 285 284 284 286 287 287 286 287 289 290 290 291 292 292 293 294
255 258 260 260 260 261 259 256 254 256 260 264 264 262 261 263 265 267 268 269 270 271 270 267 264 263 263 265 267 268 269 269 270 271 272 272 272 272 272 272 273 272 272 271 271 271 271 269 268 266 266 267 268 270 272 274 274 273 272 273 276 277 277 277 278 280 283 286 287 287 286 286 286 286 286 286 287 290 291 290 288 287 287 288 289
Height
10943 10942 10942 10942 10942 10942 10942 10942 10942 10942 10941 10940 10940 10940 10940 10939 10939 10938 10938 10938 10938 10938 10938 10937 10937 10936 10936 10936 10935 10935 10933 10931 10930 10929 10928 10926 10923 10921 10920 10919 10919 10919 10919 10919 10919 10919 10918 10917 10916 10915 10915 10914 10915 10915 10916 10917 10918 10918 10919 10919 10919 10918 10917 10915 10914 10912 10910 10909 10907 10905 10904 10902 10900 10899 10897 10895 10893 10890 10887 10885 10883 10881 10880 10880 10879
10943 10943 10943 10943 10943 10943 10943 10943 10942 10941 10941 10940 10940 10940 10940 10940 10939 10939 10938 10939 10939 10939 10938 10938 10937 10936 10936 10936 10935 10935 10933 10932 10931 10931 10929 10927 10924 10923 10922 10922 10922 10922 10922 10922 10921 10921 10921 10920 10920 10919 10918 10917 10917 10918 10919 10919 10920 10921 10921 10921 10920 10919 10918 10916 10915 10913 10911 10909 10908 10906 10904 10902 10900 10899 10897 10894 10892 10889 10887 10885 10884 10882 10881 10880 10879
10945 10944 10944 10944 10944 10944 10943 10942 10941 10941 10941 10941 10941 10940 10940 10941 10940 10940 10939 10940 10939 10939 10939 10938 10937 10936 10936 10937 10936 10935 10934 10933 10933 10932 10930 10928 10926 10925 10925 10925 10925 10925 10924 10923 10923 10923 10923 10922 10922 10922 10922 10921 10921 10921 10922 10922 10922 10922 10922 10922 10921 10920 10918 10917 10915 10913 10912 10910 10908 10906 10904 10903 10901 10899 10897 10895 10892 10890 10888 10886 10884 10883 10881 10880 10880
10946 10946 10946 10945 10945 10944 10943 10942 10942 10941 10942 10942 10942 10942 10942 10942 10942 10941 10941 10940 10940 10940 10939 10938 10938 10937 10937 10937 10937 10936 10935 10935 10934 10933 10931 10930 10928 10928 10928 10928 10927 10927 10926 10925 10924 10924 10924 10924 10925 10925 10925 10925 10924 10924 10924 10925 10925 10924 10923 10922 10921 10920 10919 10917 10916 10914 10912 10911 10909 10907 10905 10904 10902 10900 10897 10895 10893 10890 10888 10887 10885 10883 10881 10880 10879
10948 10948 10947 10946 10945 10944 10944 10943 10943 10942 10942 10942 10942 10942 10942 10942 10942 10942 10941 10941 10940 10940 10940 10939 10939 10938 10939 10938 10938 10937 10937 10937 10936 10935 10933 10932 10931 10931 10931 10930 10929 10929 10928 10928 10927 10926 10926 10926 10927 10928 10929 10929 10928 10927 10926 10927 10927 10926 10925 10924 10922 10921 10919 10918 10917 10915 10914 10912 10910 10908 10907 10905 10903 10901 10898 10895 10893 10891 10889 10887 10886 10884 10882 10880 10879
10951 10950 10948 10947 10946 10946 10945 10944 10944 10943 10943 10942 10942 10942 10942 10942 10942 10942 10942 10941 10941 10941 10941 10941 10940 10940 10940 10940 10940 10939 10939 10939 10939 10937 10935 10934 10934 10934 10933 10932 10931 10931 10931 10931 10930 10929 10929 10929 10929 10930 10931 10931 10930 10929 10928 10928 10928 10928 10927 10926 10925 10923 10921 10920 10918 10917 10915 10913 10912 10910 10908 10906 10904 10901 10898 10896 10894 10892 10890 10888 10886 10884 10882 10881 10879
10952 10951 10949 10948 10948 10947 10947 10946 10945 10944 10943 10943 10942 10942 10942 10942 10943 10943 10943 10943 10943 10943 10943 10943 10943 10943 10943 10943 10943 10943 10943 10942 10940 10939 10937 10937 10937 10937 10936 10935 10934 10934 10934 10934 10933 10933 10933 10932 10932 10932 10933 10933 10933 10931 10930 10930 10930 10930 10929 10929 10927 10926 10923 10921 10920 10918 10916 10914 10913 10911 10909 10907 10904 10902 10899 10897 10895 10893 10891 10889 10887 10885 10883 10881 10879
10953 10952 10951 10950 10950 10949 10948 10947 10945 10944 10944 10943 10943 10943 10942 10943 10944 10944 10945 10945 10945 10945 10945 10946 10946 10946 10946 10946 10946 10946 10945 10944 10942 10941 10941 10941 10940 10939 10939 10938 10937 10938 10938 10937 10936 10936 10936 10936 10936 10936 10936 10935 10935 10933 10932 10932 10932 10932 10931 10931 10930 10928 10926 10923 10921 10919 10917 10915 10914 10912 10911 10908 10906 10903 10901 10898 10896 10894 10892 10890 10888 10886 10884 10881 10879
10954 10953 10952 10951 10951 10950 10949 10947 10946 10945 10944 10944 10944 10944 10944 10944 10945 10946 10946 10946 10947 10947 10947 10948 10949 10949 10949 10949 10949 10948 10947 10946 10945 10945 10945 10945 10944 10943 10941 10941 10942 10942 10941 10940 10940 10940 10940 10940 10940 10940 10939 10938 10937 10936 10935 10935 10935 10934 10933 10933 10932 10930 10928 10925 10923 10921 10919 10918 10916 10915 10913 10910 10908 10905 10903 10900 10898 10896 10893 10891 10889 10887 10885 10882 10879
10955 10954 10953 10952 10952 10951 10950 10948 10947 10947 10945 10945 10944 10944 10945 10946 10947 10948 10949 10948 10949 10949 10948 10949 10952 10952 10951 10951 10951 10950 10949 10948 10948 10949 10949 10949 10948 10946 10945 10946 10946 10946 10945 10944 10944 10944 10943 10943 10943 10944 10943 10942 10940 10939 10938 10938 10938 10937 10936 10935 10934 10933 10931 10929 10927 10924 10922 10920 10919 10917 10915 10913 10910 10907 10905 10902 10900 10897 10895 10893 10891 10888 10886 10883 10881
10957 10956 10955 10953 10953 10952 10951 10950 10949 10948 10947 10947 10946 10946 10948 10949 10950 10950 10951 10951 10951 10951 10950 10951 10954 10955 10954 10954 10954 10953 10952 10952 10952 10952 10952 10952 10953 10951 10950 10950 10950 10949 10947 10947 10948 10948 10946 10946 10947 10947 10947 10945 10943 10942 10942 10942 10941 10940 10939 10938 10937 10936 10935 10933 10930 10928 10925 10924 10922 10920 10918 10915 10912 10910 10907 10905 10902 10900 10897 10895 10892 10890 10887 10885 10882
10958 10957 10956 10955 10955 10954 10953 10951 10951 10950 10949 10949 10950 10951 10952 10952 10953 10953 10953 10953 10954 10954 10954 10954 10956 10957 10956 10957 10957 10957 10957 10957 10957 10956 10955 10955 10956 10956 10955 10954 10953 10952 10950 10951 10952 10951 10950 10950 10951 10951 10950 10948 10946 10946 10946 10945 10944 10944 10943 10942 10941 10940 10939 10937 10934 10931 10928 10927 10925 10923 10921 10918 10915 10913 10910 10908 10905 10903 10900 10897 10895 10892 10889 10887 10883
10959 10959 10958 10958 10957 10956 10955 10954 10954 10953 10953 10953 10953 10954 10955 10955 10956 10956 10956 10956 10956 10957 10957 10958 10958 10959 10959 10959 10960 10961 10961 10961 10961 10960 10959 10959 10959 10960 10959 10957 10956 10955 10954 10955 10956 10954 10953 10954 10954 10954 10953 10951 10950 10950 10949 10948 10948 10947 10947 10946 10945 10943 10942 10939 10936 10934 10932 10930 10928 10926 10924 10921 10918 10916 10914 10912 10909 10906 10903 10900 10898 10895 10892 10889 10885
10962 10961 10961 10961 10960 10959 10958 10958 10958 10957 10956 10957 10957 10957 10958 10958 10959 10959 10960 10960 10960 10960 10960 10961 10962 10962 10962 10963 10964 10965 10965 10965 10964 10963 10963 10964 10963 10962 10961 10959 10958 10958 10958 10959 10960 10958 10957 10957 10957 10957 10956 10955 10953 10952 10951 10951 10951 10950 10950 10949 10948 10946 10944 10942 10939 10937 10935 10933 10932 10930 10927 10925 10922 10920 10918 10915 10912 10910 10907 10904 10902 10898 10895 10891 10888
10965 10964 10964 10964 10964 10963 10962 10962 10962 10961 10961 10961 10961 10961 10961 10962 10962 10963 10964 10964 10964 10964 10963 10964 10965 10965 10965 10966 10967 10968 10968 10967 10967 10967 10968 10967 10966 10965 10963 10962 10962 10962 10962 10964 10965 10963 10960 10960 10961 10961 10960 10958 10956 10954 10954 10955 10955 10953 10952 10952 10950 10949 10947 10944 10942 10940 10938 10937 10935 10933 10931 10929 10926 10924 10922 10919 10916 10913 10910 10908 10905 10902 10898 10895 10891
10968 10968 10967 10967 10967 10967 10966 10966 10966 10966 10966 10965 10965 10965 10965 10965 10966 10967 10968 10968 10967 10967 10968 10967 10968 10968 10968 10968 10968 10969 10970 10970 10969 10970 10970 10969 10968 10968 10968 10967 10967 10967 10968 10968 10968 10966 10963 10963 10965 10965 10963 10961 10958 10956 10957 10959 10959 10956 10955 10954 10953 10951 10949 10947 10946 10944 10942 10941 10939 10937 10935 10933 10931 10928 10926 10923 10920 10917 10914 10911 10909 10905 10902 10898 10895
10971 10971 10971 10970 10970 10970 10970 10970 10970 10970 10970 10970 10970 10970 10970 10970 10970 10971 10971 10971 10971 10971 10972 10971 10971 10972 10971 10969 10969 10970 10972 10972 10972 10972 10972 10971 10971 10971 10972 10972 10972 10972 10972 10971 10969 10968 10966 10966 10967 10967 10966 10963 10960 10959 10961 10963 10962 10959 10957 10957 10956 10954 10952 10951 10949 10948 10946 10945 10943 10942 10940 10937 10935 10932 10930 10927 10924 10921 10918 10915 10913 10909 10905 10902 10899
10974 10974 10973 10973 10973 10974 10974 10974 10974 10974 10974 10975 10975 10974 10974 10974 10974 10974 10975 10976 10975 10975 10975 10975 10975 10975 10974 10973 10972 10972 10973 10974 10974 10975 10975 10974 10973 10974 10975 10975 10975 10974 10974 10973 10972 10972 10969 10968 10969 10970 10969 10966 10963 10963 10965 10966 10964 10961 10960 10959 10959 10957 10956 10954 10953 10951 10950 10949 10947 10946 10943 10941 10939 10936 10934 10931 10928 10925 10922 10919 10917 10913 10910 10906 10903
10977 10977 10976 10976 10977 10978 10978 10978 10978 10979 10979 10979 10979 10979 10979 10979 10979 10979 10979 10980 10980 10979 10979 10978 10979 10979 10979 10978 10977 10976 10976 10977 10978 10978 10978 10977 10976 10976 10977 10978 10979 10978 10977 10977 10976 10974 10970 10971 10974 10974 10972 10969 10967 10968 10969 10969 10966 10964 10963 10962 10962 10960 10959 10957 10956 10955 10953 10952 10951 10949 10947 10945 10943 10940 10938 10935 10932 10929 10926 10924 10921 10917 10914 10911 10908
10980 10980 10980 10980 10981 10982 10982 10982 10982 10982 10982 10983 10983 10984 10983 10983 10983 10983 10983 10983 10983 10982 10982 10982 10982 10982 10983 10982 10981 10980 10980 10982 10982 10981 10981 10981 10980 10980 10980 10981 10982 10982 10982 10981 10979 10975 10974 10976 10978 10976 10973 10972 10972 10972 10972 10971 10969 10967 10966 10965 10964 10963 10962 10960 10959 10958 10957 10956 10954 10953 10950 10948 10946 10944 10941 10939 10936 10934 10931 10928 10925 10922 10919 10916 10913
10984 10983 10984 10984 10985 10985 10986 10986 10986 10986 10986 10987 10987 10987 10987 10987 10987 10986 10986 10986 10987 10986 10986 10986 10986 10986 10986 10985 10984 10984 10984 10985 10985 10984 10985 10985 10985 10984 10982 10982 10985 10986 10984 10980 10978 10978 10979 10981 10980 10977 10976 10976 10976 10975 10975 10974 10971 10969 10969 10968 10967 10966 10964 10963 10962 10961 10960 10959 10957 10956 10954 10952 10950 10947 10945 10943 10940 10938 10936 10933 10930 10928 10925 10921 10918
10987 10987 10988 10988 10989 10989 10989 10990 10990 10990 10991 10991 10991 10991 10991 10991 10990 10990 10990 10990 10990 10990 10990 10990 10990 10989 10989 10988 10988 10988 10988 10988 10988 10989 10989 10989 10988 10987 10985 10985 10988 10988 10984 10981 10983 10986 10985 10984 10983 10981 10981 10979 10979 10979 10977 10975 10973 10972 10972 10971 10970 10968 10967 10966 10965 10964 10964 10962 10961 10959 10957 10955 10953 10951 10948 10946 10944 10942 10940 10938 10936 10933 10930 10927 10924
10991 10991 10992 10992 10993 10993 10993 10993 10994 10994 10994 10995 10995 10995 10995 10995 10994 10994 10994 10994 10993 10993 10994 10994 10994 10993 10992 10991 10991 10992 10991 10992 10992 10992 10992 10992 10991 10990 10989 10989 10989 10989 10988 10989 10992 10993 10990 10987 10986 10986 10984 10983 10983 10982 10979 10976 10976 10976 10975 10974 10973 10971 10970 10969 10968 10968 10966 10965 10964 10962 10960 10958 10956 10954 10952 10950 10948 10946 10944 10942 10940 10939 10936 10933 10930
10994 10994 10995 10995 10996 10996 10997 10997 10997 10997 10998 10998 10998 10998 10998 10998 10998 10997 10998 10997 10997 10997 10997 10998 10998 10997 10995 10994 10995 10995 10995 10995 10995 10995 10995 10994 10994 10993 10993 10992 10992 10991 10992 10993 10995 10994 10992 10990 10989 10988 10987 10986 10985 10983 10980 10979 10979 10979 10978 10977 10975 10974 10973 10972 10972 10971 10969 10968 10967 10965 10963 10961 10959 10957 10955 10954 10952 10950 10948 10946 10945 10943 10941 10939 10936
10997 10997 10998 10998 10999 11000 11000 11000 11001 11001 11001 11002 11002 11001 11001 11001 11001 11000 11001 11000 11000 11000 11001 11001 11001 11000 10999 10998 10998 10998 10998 10998 10998 10999 10998 10997 10997 10996 10996 10995 10994 10994 10995 10995 10995 10994 10994 10993 10991 10991 10989 10987 10986 10985 10984 10983 10983 10982 10981 10980 10978 10977 10977 10976 10975 10974 10972 10971 10970 10968 10967 10965 10963 10961 10959 10958 10956 10954 10952 10951 10949 10947 10946 10944 10942
11000 11000 11000 11001 11001 11002 11003 11004 11004 11004 11005 11005 11005 11005 11004 11004 11004 11003 11003 11003 11003 11004 11004 11003 11003 11003 11002 11002 11002 11001 11002 11002 11002 11002 11001 11000 11000 10999 10998 10998 10997 10997 10997 10996 10996 10995 10995 10994 10994 10993 10991 10990 10989 10989 10988 10987 10986 10985 10984 10983 10982 10981 10980 10979 10978 10977 10976 10975 10973 10972 10970 10968 10967 10965 10963 10962 10960 10958 10957 10955 10954 10952 10950 10948 10947
11003 11003 11003 11004 11004 11005 11006 11006 11007 11007 11007 11007 11008 11008 11007 11007 11007 11006 11006 11006 11006 11006 11006 11006 11005 11005 11005 11005 11004 11004 11004 11005 11004 11004 11004 11003 11002 11002 11001 11000 11000 11000 10999 10999 10998 10997 10997 10996 10996 10995 10994 10994 10993 10992 10992 10992 10990 10988 10988 10987 10986 10984 10983 10982 10981 10980 10979 10978 10977 10975 10974 10972 10971 10969 10967 10966 10964 10962 10961 10960 10959 10957 10955 10953 10951
11005 11006 11007 11007 11007 11008 11008 11009 11009 11009 11010 11010 11010 11010 11010 11009 11009 11009 11009 11009 11009 11009 11009 11008 11008 11008 11007 11007 11007 11007 11007 11007 11007 11006 11006 11006 11005 11004 11004 11003 11003 11002 11002 11001 11000 11000 10999 10999 10998 10997 10997 10997 10996 10995 10996 10995 10993 10992 10991 10991 10989 10988 10987 10986 10984 10983 10982 10981 10980 10979 10977 10976 10974 10973 10971 10970 10968 10966 10965 10964 10963 10962 10960 10959 10956
11008 11009 11009 11010 11010 11011 11011 11012 11012 11012 11012 11012 11012 11012 11012 11012 11012 11012 11011 11012 11012 11012 11011 11011 11011 11010 11010 11009 11009 11009 11009 11009 11009 11008 11008 11008 11007 11006 11006 11006 11006 11005 11004 11004 11003 11002 11002 11001 11001 11000 10999 10999 10999 10999 10998 10997 10996 10995 10994 10994 10993 10992 10991 10990 10988 10987 10986 10985 10983 10982 10981 10979 10978 10977 10975 10973 10972 10970 10969 10967 10966 10966 10965 10964 10962
11010 11011 11012 11012 11013 11013 11014 11014 11014 11014 11014 11014 11014 11014 11014 11014 11014 11014 11014 11014 11014 11014 11014 11014 11013 11013 11012 11012 11011 11011 11011 11011 11010 11010 11010 11009 11009 11008 11008 11008 11007 11007 11006 11005 11005 11004 11004 11003 11003 11002 11002 11001 11002 11002 11001 11000 10999 10998 10997 10997 10996 10995 10994 10993 10992 10990 10989 10988 10986 10985 10984 10983 10981 10980 10979 10977 10976 10974 10973 10971 10970 10969 10969 10968 10967
11012 11013 11013 11014 11014 11015 11016 11016 11016 11016 11016 11016 11016 11016 11016 11016 11016 11016 11016 11016 11016 11016 11016 11016 11015 11015 11014 11014 11014 11013 11013 11013 11012 11012 11011 11011 11011 11010 11010 11009 11008 11008 11007 11007 11006 11006 11006 11006 11006 11005 11004 11004 11004 11004 11003 11003 11002 11001 11000 10999 10998 10998 10997 10996 10995 10994 10992 10991 10990 10989 10987 10986 10984 10983 10982 10981 10979 10978 10976 10975 10974 10973 10972 10972 10971
11014 11014 11015 11016 11016 11017 11017 11018 11018 11018 11018 11018 11018 11018 11018 11018 11018 11018 11018 11018 11018 11017 11017 11017 11017 11017 11016 11016 11016 11015 11015 11014 11014 11014 11013 11013 11013 11012 11011 11010 11009 11009 11009 11009 11008 11008 11008 11008 11007 11007 11006 11006 11006 11006 11005 11004 11004 11003 11003 11001 11000 11000 10999 10999 10997 10996 10995 10993 10992 10991 10990 10989 10987 10986 10985 10984 10982 10981 10980 10979 10978 10977 10976 10975 10974
11016 11016 11017 11017 11018 11019 11019 11019 11020 11020 11020 11020 11020 11020 11020 11020 11020 11020 11020 11019 11019 11018 11018 11018 11018 11018 11018 11017 11017 11017 11016 11016 11015 11015 11015 11015 11014 11014 11013 11012 11011 11011 11011 11011 11010 11010 11009 11009 11008 11008 11007 11007 11007 11007 11007 11006 11005 11004 11004 11003 11002 11001 11001 11000 10999 10998 10997 10996 10995 10994 10993 10991 10990 10989 10988 10987 10986 10984 10983 10982 10981 10980 10979 10978 10978
11017 11017 11018 11019 11019 11020 11020 11021 11021 11021 11021 11021 11021 11021 11021 11021 11021 11021 11021 11020 11019 11019 11019 11019 11019 11019 11019 11019 11019 11018 11018 11017 11016 11016 11016 11016 11016 11015 11015 11014 11013 11012 11012 11012 11011 11010 11010 11009 11009 11008 11008 11007 11007 11007 11007 11007 11006 11005 11005 11004 11003 11003 11002 11002 11001 10999 10998 10997 10996 10996 10995 10994 10993 10992 10991 10990 10989 10987 10986 10985 10984 10983 10982 10981 10980
11017 11018 11019 11019 11020 11021 11021 11022 11022 11022 11022 11022 11022 11022 11022 11022 11022 11021 11021 11021 11021 11021 11021 11020 11020 11021 11021 11021 11020 11020 11019 11018 11018 11017 11017 11017 11017 11017 11017 11016 11014 11013 11013 11013 11012 11011 11011 11011 11010 11009 11008 11008 11007 11007 11007 11007 11007 11006 11006 11005 11004 11004 11004 11003 11002 11001 11000 10999 10998 10997 10996 10995 10995 10994 10993 10992 10991 10990 10989 10987 10986 10985 10984 10983 10982
11017 11018 11018 11019 11020 11021 11021 11022 11022 11023 11023 11023 11023 11023 11023 11022 11022 11021 11022 11022 11022 11021 11021 11020 11021 11021 11021 11021 11021 11021 11020 11020 11019 11019 11018 11017 11017 11018 11018 11017 11015 11014 11013 11013 11012 11012 11012 11012 11010 11009 11009 11009 11008 11007 11007 11007 11007 11007 11007 11006 11005 11005 11005 11004 11003 11002 11001 11000 10999 10998 10998 10997 10996 10995 10995 10994 10993 10992 10991 10989 10988 10987 10986 10985 10984
11017 11017 11018 11018 11019 11020 11020 11021 11021 11022 11022 11022 11023 11023 11023 11022 11022 11022 11021 11022 11022 11021 11021 11020 11020 11020 11020 11021 11021 11021 11021 11021 11020 11019 11018 11018 11017 11017 11017 11016 11015 11014 11014 11013 11012 11012 11012 11011 11011 11010 11010 11009 11008 11008 11007 11007 11007 11006 11006 11006 11006 11005 11005 11005 11004 11003 11002 11001 11000 10999 10999 10998 10997 10997 10996 10995 10994 10993 10992 10991 10990 10988 10987 10986 10986
11017 11017 11018 11018 11018 11019 11019 11020 11020 11021 11022 11022 11022 11022 11022 11022 11021 11021 11021 11021 11021 11021 11020 11020 11020 11020 11020 11020 11020 11020 11021 11020 11020 11019 11019 11018 11018 11017 11016 11016 11015 11014 11014 11013 11012 11012 11011 11011 11011 11010 11010 11009 11008 11008 11007 11006 11005 11005 11005 11005 11005 11005 11005 11004 11003 11002 11002 11001 11000 11000 10999 10998 10998 10997 10996 10995 10994 10994 10993 10992 10990 10989 10988 10988 10987
11017 11017 11018 11018 11018 11018 11019 11019 11020 11020 11020 11021 11021 11021 11020 11020 11020 11020 11020 11020 11019 11019 11020 11020 11019 11019 11019 11019 11019 11020 11020 11020 11019 11019 11018 11017 11017 11016 11016 11015 11015 11014 11014 11013 11012 11011 11011 11011 11010 11009 11009 11009 11008 11007 11006 11006 11005 11005 11004 11004 11004 11004 11003 11003 11002 11001 11001 11001 11000 11000 10999 10998 10997 10997 10996 10995 10994 10994 10993 10992 10991 10990 10989 10988 10987
11016 11016 11017 11017 11018 11018 11018 11018 11018 11018 11019 11019 11020 11019 11019 11019 11019 11019 11019 11019 11018 11018 11018 11018 11018 11018 11018 11018 11018 11019 11019 11018 11018 11017 11017 11016 11016 11016 11015 11015 11014 11014 11013 11012 11011 11010 11010 11009 11009 11008 11008 11007 11007 11006 11006 11005 11005 11004 11004 11004 11003 11003 11002 11001 11001 11001 11000 11000 10999 10999 10998 10998 10997 10996 10995 10994 10994 10993 10992 10991 10990 10989 10988 10987 10987
11013 11014 11014 11015 11016 11016 11016 11016 11016 11017 11018 11018 11018 11018 11018 11018 11018 11018 11018 11018 11018 11017 11017 11017 11017 11017 11017 11017 11017 11017 11017 11017 11017 11016 11016 11015 11015 11015 11015 11014 11013 11013 11012 11011 11010 11009 11009 11008 11008 11007 11007 11007 11006 11006 11005 11004 11004 11003 11002 11002 11002 11002 11001 11000 11000 10999 10999 10999 10998 10998 10997 10996 10996 10995 10994 10993 10992 10991 10991 10990 10990 10989 10988 10987 10986
11011 11011 11012 11013 11014 11014 11014 11014 11014 11015 11015 11016 11016 11016 11016 11016 11017 11017 11017 11017 11017 11017 11016 11016 11016 11016 11016 11016 11016 11016 11016 11016 11015 11014 11014 11014 11014 11013 11013 11012 11012 11011 11010 11010 11009 11008 11008 11007 11007 11006 11006 11006 11005 11005 11004 11003 11003 11002 11001 11001 11000 11000 11000 10999 10998 10998 10998 10997 10996 10995 10995 10994 10994 10993 10992 10991 10990 10989 10989 10988 10988 10987 10986 10985 10985
11008 11009 11010 11010 11011 11012 11012 11012 11012 11013 11013 11013 11013 11013 11014 11014 11014 11015 11015 11015 11015 11015 11015 11015 11015 11014 11014 11014 11014 11013 11013 11012 11012 11012 11012 11011 11011 11011 11011 11010 11009 11009 11008 11008 11008 11007 11006 11006 11006 11005 11005 11004 11004 11003 11003 11002 11001 11000 11000 10999 10998 10998 10998 10997 10997 10996 10995 10995 10994 10993 10992 10992 10991 10991 10990 10989 10988 10988 10987 10986 10986 10986 10985 10984 10983
11006 11007 11007 11008 11008 11009 11010 11010 11009 11009 11009 11010 11010 11010 11011 11011 11012 11012 11012 11012 11012 11013 11013 11013 11012 11012 11011 11011 11011 11010 11010 11009 11009 11009 11010 11009 11009 11009 11008 11008 11007 11006 11006 11006 11006 11005 11005 11004 11004 11003 11003 11003 11002 11002 11001 11000 11000 10999 10998 10997 10997 10996 10995 10995 10994 10994 10993 10992 10991 10991 10990 10989 10988 10988 10988 10988 10987 10986 10986 10985 10984 10984 10983 10983 10982
11004 11004 11005 11006 11006 11006 11007 11006 11004 11005 11007 11008 11008 11008 11008 11009 11009 11009 11009 11009 11009 11010 11010 11010 11010 11009 11009 11009 11008 11008 11007 11007 11007 11007 11008 11007 11007 11006 11006 11005 11005 11005 11004 11004 11004 11003 11002 11002 11001 11001 11001 11001 11000 11000 10999 10998 10997 10997 10996 10995 10994 10993 10993 10992 10991 10991 10990 10989 10989 10988 10987 10986 10986 10985 10986 10986 10985 10984 10984 10983 10982 10982 10981 10980 10980
11000 11001 11002 11003 11003 11003 11004 11003 11002 11003 11005 11006 11006 11005 11005 11005 11006 11006 11006 11006 11006 11007 11007 11007 11007 11007 11006 11006 11006 11005 11004 11005 11005 11006 11005 11004 11003 11003 11003 11002 11002 11002 11002 11002 11001 11000 11000 10999 10999 10998 10999 10999 10998 10997 10996 10996 10995 10994 10993 10992 10992 10991 10990 10989 10988 10988 10987 10986 10986 10985 10984 10983 10983 10982 10983 10984 10983 10981 10981 10981 10980 10979 10978 10977 10976
10997 10997 10998 10999 10999 11001 11002 11001 11002 11003 11003 11003 11003 11003 11002 11001 11002 11002 11002 11002 11003 11003 11003 11003 11004 11004 11003 11002 11002 11002 11002 11002 11002 11002 11002 11001 11000 10999 10999 10999 10999 10999 10999 10998 10997 10996 10996 10996 10995 10995 10995 10995 10995 10994 10994 10993 10992 10991 10990 10989 10989 10988 10987 10986 10986 10985 10984 10983 10983 10982 10981 10981 10980 10979 10979 10980 10980 10979 10978 10978 10977 10976 10974 10973 10973
10993 10993 10993 10994 10995 10997 10998 10998 10999 11000 11000 11000 11000 10999 10998 10998 10998 10998 10998 10998 10999 11000 11000 11000 11000 11000 10999 10999 10999 10999 10999 10999 10999 10998 10998 10997 10997 10996 10995 10995 10995 10995 10995 10995 10993 10993 10993 10992 10991 10991 10990 10990 10990 10991 10991 10990 10989 10988 10987 10986 10985 10984 10983 10983 10983 10982 10981 10980 10980 10979 10978 10978 10977 10976 10975 10974 10975 10976 10975 10974 10973 10973 10972 10970 10969
10989 10988 10988 10990 10991 10992 10993 10994 10994 10995 10995 10996 10996 10996 10995 10994 10994 10994 10994 10994 10995 10996 10996 10997 10996 10996 10995 10994 10994 10995 10995 10995 10995 10994 10994 10993 10993 10992 10992 10991 10991 10991 10992 10991 10990 10989 10989 10988 10987 10987 10986 10986 10986 10986 10986 10986 10986 10985 10984 10982 10981 10981 10980 10979 10979 10979 10978 10977 10977 10975 10974 10974 10974 10974 10972 10969 10967 10969 10971 10970 10969 10968 10967 10967 10966
10984 10983 10984 10986 10987 10987 10988 10989 10990 10989 10989 10990 10992 10991 10990 10990 10990 10990 10990 10990 10991 10991 10992 10992 10992 10992 10990 10989 10990 10991 10991 10991 10991 10990 10990 10989 10989 10988 10988 10987 10987 10987 10987 10986 10985 10984 10984 10983 10983 10982 10982 10981 10981 10981 10981 10981 10981 10981 10980 10978 10978 10978 10976 10975 10975 10974 10973 10973 10973 10972 10971 10970 10970 10970 10969 10965 10962 10961 10962 10964 10965 10964 10961 10961 10960
10979 10979 10979 10980 10980 10981 10982 10984 10984 10984 10984 10984 10986 10985 10985 10985 10984 10985 10985 10986 10986 10986 10986 10986 10987 10987 10986 10985 10986 10986 10986 10986 10986 10985 10985 10985 10984 10984 10983 10983 10982 10982 10982 10981 10980 10979 10978 10978 10977 10977 10977 10976 10976 10976 10976 10975 10975 10975 10975 10973 10973 10974 10972 10970 10970 10969 10968 10969 10968 10967 10967 10966 10965 10965 10965 10962 10960 10957 10953 10953 10958 10959 10956 10955 10954